Flag for Portugal Weather past 2 weeks in Faro, Portugal

Now
63 °F

Light rain. Partly sunny.


Feels Like: 63 °F
Forecast: 57 / 66 °F
Wind: 8 mph from Southwest

Location: Faro / Aeroporto


UV Index: 5 (Moderate)

Visibility: N/A


Pressure: 29.71 "Hg

Humidity: 88%

Dew point: 59 °F

Location of FaroLocation

Historic Weather in Faro

°F

Faro temperature yesterday

Maximum temperature yesterday: 68 °F (at 2:30 PM)
Minimum temperature yesterday: 59 °F (at 2:30 AM)
Average temperature yesterday: 62 °F

Past Weeks' High & Low Weather Summary

 TemperatureHumidityPressure
High81 °F (Apr 8, 4:00 PM)100% (Apr 5, 8:00 AM)30.24 "Hg (Apr 5, 8:00 AM)
Low52 °F (Apr 12, 6:00 AM)31% (Apr 17, 2:00 PM)29.71 "Hg (Apr 20, 5:00 AM)
Average65 °F77%29.99 "Hg
* Reported Apr 5 8:00 AM — Apr 20 8:30 AM, Faro, Weather by CustomWeather, © 2014

Note: Actual official high and low records may vary slightly from our data, if they occured in-between our weather recording intervals... More about our weather records

Advertising

Historic Weather Conditions — Data for Previous 24 hours

 ConditionsComfort  
Time TempWeatherWind HumidityBarometerVisibility
8:30 AM
Apr 20
63 °FScattered clouds.6 mph88%29.71 "HgN/A
8:00 AM63 °FPartly sunny.8 mph88%29.71 "HgN/A
7:30 AM61 °FPassing clouds.10 mph88%29.71 "HgN/A
7:00 AM61 °FPassing clouds.10 mph88%29.71 "HgN/A
6:30 AM61 °FPassing clouds.14 mph94%29.71 "HgN/A
6:00 AM61 °FPassing clouds.13 mph94%29.71 "HgN/A
5:30 AM61 °FPassing clouds.9 mph94%29.71 "HgN/A
5:00 AM59 °FPassing clouds.5 mph100%29.71 "HgN/A
4:30 AM57 °FPassing clouds.6 mph100%29.74 "HgN/A
4:00 AM57 °FPassing clouds.6 mph100%29.74 "HgN/A
3:30 AM57 °FLight rain. Partly cloudy.7 mph100%29.74 "Hg5 mi
3:00 AM57 °FRain. Partly cloudy.13 mph100%29.77 "Hg3 mi
2:30 AM57 °FHeavy rain. Partly cloudy.3 mph100%29.77 "Hg3 mi
2:00 AM59 °FRain. Partly cloudy.3 mph94%29.80 "Hg6 mi
1:30 AM59 °FRain. Partly cloudy.6 mph94%29.83 "Hg6 mi
1:00 AM59 °FLight rain. Partly cloudy.6 mph94%29.83 "Hg5 mi
12:30 AM61 °FPassing clouds.6 mph88%29.83 "HgN/A
12:00 AM61 °FPassing clouds.7 mph83%29.86 "HgN/A
11:30 PM
Apr 19
61 °FPassing clouds.9 mph83%29.86 "HgN/A
11:00 PM61 °FPassing clouds.10 mph83%29.86 "HgN/A
10:30 PM61 °FLight rain. Passing clouds.9 mph83%29.86 "HgN/A
10:00 PM61 °FLight rain. Passing clouds.10 mph77%29.86 "HgN/A
9:30 PM61 °FPassing clouds.12 mph83%29.83 "HgN/A
9:00 PM61 °FScattered clouds.15 mph83%29.83 "HgN/A
8:30 PM61 °FScattered clouds.18 mph83%29.83 "HgN/A
8:00 PM63 °FScattered clouds.21 mph77%29.83 "HgN/A
7:30 PM63 °FScattered clouds.22 mph77%29.83 "HgN/A
7:00 PM64 °FPassing clouds.21 mph73%29.83 "HgN/A
6:30 PM64 °FPassing clouds.24 mph73%29.83 "HgN/A
6:00 PM64 °FPassing clouds.26 mph78%29.83 "HgN/A
5:30 PM66 °FPassing clouds.24 mph68%29.80 "HgN/A
5:00 PM66 °FPassing clouds.29 mph68%29.80 "HgN/A
4:30 PM66 °FPassing clouds.23 mph68%29.80 "HgN/A
4:00 PM66 °FPassing clouds.23 mph68%29.80 "HgN/A
3:30 PM66 °FPassing clouds.20 mph68%29.83 "HgN/A
3:00 PM68 °FPassing clouds.17 mph56%29.83 "HgN/A
2:30 PM68 °FPassing clouds.16 mph60%29.83 "HgN/A
2:00 PM66 °FPassing clouds.16 mph60%29.83 "HgN/A
1:30 PM66 °FPassing clouds.16 mph64%29.83 "HgN/A
1:00 PM66 °FScattered clouds.17 mph64%29.86 "HgN/A
12:30 PM66 °FScattered clouds.10 mph56%29.86 "HgN/A
12:00 PM66 °FScattered clouds.10 mph56%29.86 "HgN/A
11:30 AM64 °FScattered clouds.9 mph64%29.86 "HgN/A
11:00 AM63 °FScattered clouds.7 mph73%29.86 "HgN/A
10:30 AM63 °FOvercast.7 mph73%29.86 "HgN/A
10:00 AM63 °FPartly sunny.3 mph73%29.89 "HgN/A
9:30 AM61 °FOvercast.6 mph72%29.86 "HgN/A
9:00 AM59 °FOvercast.3 mph77%29.89 "HgN/A
Weather by CustomWeather, © 2014

See weather overview